Regional Weather Roundup
Issued by NWS New Orleans/Baton Rouge, LA

Home | Current Version | Previous Version | Graphics & Text | Print | Product List | Glossary On
Versions: 1 2 3 4 5 6 7 8 9 10 11 12 13 14 15 16 17 18 19 20 21 22 23 24 25 26 27 28 29 30 31 32 33 34 35 36 37 38 39 40 41 42 43 44 45 46 47 48 49 50
655
ASUS44 KLIX 210605
RWRLIX
NEW ORLEANS REGIONAL WEATHER ROUNDUP
NATIONAL WEATHER SERVICE NEW ORLEANS LA
100 AM CDT MON APR 21 2014

NOTE: "FAIR" INDICATES FEW OR NO CLOUDS BELOW 12,000 FEET WITH NO
      SIGNIFICANT WEATHER AND/OR OBSTRUCTIONS TO VISIBILITY.
      SKY/WX - SKY CONDITION AND SIGNIFICANT WEATHER.
      TMP - AIR TEMPERATURE.     DP    - DEWPOINT TEMPERATURE.
      RH  - RELATIVE HUMIDITY.   PRES  - PRESSURE.
      HI  - HEAT INDEX.          WCI   - WIND CHILL INDEX.

*  THESE STATIONS ARE NOT NWS OR FAA STATIONS AND ARE NOT UNDER
   NWS QUALITY CONTROL.

LAZ038-040-048-061>063-065>067-069-210700-
SOUTHEAST LOUISIANA

CITY           SKY/WX    TMP DP  RH WIND       PRES   REMARKS
N.O. AUDUBON     N/A     64  59  82 MISG        N/A
6HR MIN TEMP:  64; 6HR MAX TEMP:  76;

N.O. INTL ARPT   N/A     63  59  87 SE6       30.14S
6HR MIN TEMP:  63; 6HR MAX TEMP:  78;

N.O. LAKEFRONT   N/A     63  59  87 S8        30.15S
6HR MIN TEMP:  63; 6HR MAX TEMP:  78;

N.O. DOWNTOWN*   N/A     66  57  72 S6        30.15S
6HR MIN TEMP:  66; 6HR MAX TEMP:  79;

SLIDELL          N/A     60  57  89 CALM      30.14S
6HR MIN TEMP:  60; 6HR MAX TEMP:  76;

BATON ROUGE      N/A     65  56  72 E7        30.11S
6HR MIN TEMP:  65; 6HR MAX TEMP:  80;

BOOTHVILLE       N/A     60  57  89 E3        30.15F
6HR MIN TEMP:  60; 6HR MAX TEMP:  66;

BELLE CHASSE     N/A    N/A N/A N/A S5        30.14S
BOGALUSA*        N/A     61  57  87 CALM      30.16S
6HR MIN TEMP:  61; 6HR MAX TEMP:  79;

GALLIANO*        N/A     65  59  82 E5        30.14S
6HR MIN TEMP:  65; 6HR MAX TEMP:  73;

NEW ROADS*       N/A     65  56  73 S5        30.11S
6HR MIN TEMP:  65; 6HR MAX TEMP:  79;

GONZALES*        N/A     63  62  94 CALM      30.12S
6HR MIN TEMP:  61; 6HR MAX TEMP:  78;

HAMMOND*       CLOUDY    64  61  88 SE6       30.15S
HOUMA*           N/A     60  58  92 E5        30.13S FOG
6HR MIN TEMP:  60; 6HR MAX TEMP:  74;

PORT FOURCHON* PTCLDY    66  61  82 E8        30.15F

$$

MSZ070-080>082-210700-
SOUTHERN MISSISSIPPI

CITY           SKY/WX    TMP DP  RH WIND       PRES   REMARKS
MCCOMB           N/A     60  57  89 SE7       30.13S
6HR MIN TEMP:  58; 6HR MAX TEMP:  77;

GULFPORT         N/A     65  58  78 S3        30.14F
6HR MIN TEMP:  64; 6HR MAX TEMP:  69;

BILOXI           N/A     63  59  85 E5        30.14F
6HR MIN TEMP:  63; 6HR MAX TEMP:  66;

PASCAGOULA       N/A     55  55 100 CALM      30.14F
6HR MIN TEMP:  55; 6HR MAX TEMP:  66;


$$

COASTAL OBSERVATIONS
LAKE AND NEARSHORE STATIONS

STATION/POSITION TIME  TEMP    WIND        PRES    WAVE
                       AIR SEA DIR/SP/G            HT/PER
                 (UTC) (F)     (DEG/KT/KT) (MB)    (FT/S)
PASCAGOULA       0600   64     110/  4/  9 1020.0
WAVELAND YACHT   0600   64 71  160/ 10/ 12 1019.8
GRAND ISLE       0600   65 68  120/  6/ 11 1021.1
SOUTHWEST PASS   0600   64 59   90/ 12/ 13 1020.8
NEW CANAL        0600   65 68  150/  1/  3 1021.2
SHELL BEACH      0600   63 68  130/ 10/ 13 1020.3

OFFSHORE STATIONS

STATION/POSITION TIME  TEMP    WIND        PRES    WAVE
                       AIR SEA DIR/SP/G            HT/PER
                 (UTC) (F)     (DEG/KT/KT) (MB)    (FT/S)
64 S DAUPHIN ISL 0453   64 70   70/ 12/ 14 1020.6

$$




USA.gov is the U.S. government's official web portal to all federal, state and local government web resources and services.